Weather History for Ruidoso, NM

Change the Weather History Date:

Wednesday, August 20, 2014

  Actual Average Record
Temperature  
Mean Temperature 65 °F -  
Max Temperature 73 °F 77 °F 91 °F (2007)
Min Temperature 57 °F 55 °F 51 °F (1996)
Growing Degree Days 15 (Base 50)    
Moisture  
Dew Point 52 °F    
Average Humidity 66    
Maximum Humidity 88    
Minimum Humidity 47    
Precipitation  
Precipitation 0.03 in - - ()
Sea Level Pressure  
Sea Level Pressure 30.18 in    
Wind  
Wind Speed 7 mph (West)    
Max Wind Speed 13 mph    
Max Gust Speed 20 mph    
Visibility 10 miles    
Events Rain , Thunderstorm    
Averages and records for this station are not official NWS values.
T = Trace of Precipitation, MM = Missing Value Source: NWS Daily Summary

Daily Weather History Graph

Daily Weather History Graph

Search for Another Location

Airport:

Trip Planner

Search our weather history database for the weather conditions in past years. The results will help you decide how hot, cold, wet, or windy it might be!

Date:

Astronomy

Aug. 20, 2014 Rise Set
Actual Time 6:28 AM MDT 7:42 PM MDT
Civil Twilight 6:02 AM MDT 8:08 PM MDT
Nautical Twilight 5:31 AM MDT 8:39 PM MDT
Astronomical Twilight 4:59 AM MDT 9:11 PM MDT
Moon 2:15 AM MDT (8/20) 4:24 PM MDT (8/20)
Length of Visible Light 14h 06m
Length of Day
13h 14m
Waning Crescent, 20% of the Moon is Illuminated
Aug 20
Waning Crescent
Aug 25
New
Sep 2
First Quarter
Sep 8
Full
Sep 15
Last Quarter

Hourly Weather History & Observations

Time (MDT) Temp. Dew Point Humidity Pressure Visibility Wind Dir Wind Speed Gust Speed Precip Events Conditions
12:15 AM 60.8 °F 50.0 °F 68% 30.14 in 10.0 mi SW 8.1 mph - N/A   Mostly Cloudy
12:35 AM 59.0 °F 50.0 °F 72% 30.14 in 10.0 mi SW 10.4 mph - N/A   Clear
12:55 AM 60.8 °F 50.0 °F 68% 30.14 in 10.0 mi SW 8.1 mph - N/A   Clear
1:15 AM 59.0 °F 50.0 °F 72% 30.14 in 10.0 mi SW 6.9 mph - N/A   Clear
1:35 AM 59.0 °F 50.0 °F 72% 30.13 in 10.0 mi WSW 8.1 mph - N/A   Clear
1:55 AM 60.8 °F 48.2 °F 63% 30.13 in 10.0 mi WSW 8.1 mph - N/A   Clear
2:15 AM 60.8 °F 50.0 °F 68% 30.13 in 10.0 mi West 8.1 mph - N/A   Clear
2:35 AM 60.8 °F 48.2 °F 63% 30.13 in 10.0 mi WNW 5.8 mph - N/A   Clear
2:55 AM 60.8 °F 50.0 °F 68% 30.13 in 10.0 mi West 5.8 mph - N/A   Partly Cloudy
3:15 AM 59.0 °F 50.0 °F 72% 30.13 in 10.0 mi WSW 5.8 mph - N/A   Clear
3:35 AM 59.0 °F 50.0 °F 72% 30.14 in 10.0 mi WSW 8.1 mph - N/A   Clear
3:55 AM 59.0 °F 50.0 °F 72% 30.14 in 10.0 mi WSW 8.1 mph - N/A   Scattered Clouds
4:15 AM 59.0 °F 50.0 °F 72% 30.14 in 10.0 mi WNW 6.9 mph - N/A   Mostly Cloudy
4:35 AM 59.0 °F 50.0 °F 72% 30.14 in 10.0 mi West 8.1 mph - N/A   Scattered Clouds
4:55 AM 57.2 °F 50.0 °F 77% 30.14 in 10.0 mi WSW 6.9 mph - N/A   Clear
5:15 AM 57.2 °F 48.2 °F 72% 30.15 in 10.0 mi SW 5.8 mph - N/A   Clear
5:35 AM 59.0 °F 50.0 °F 72% 30.15 in 10.0 mi West 4.6 mph - N/A   Mostly Cloudy
5:55 AM 59.0 °F 48.2 °F 67% 30.15 in 10.0 mi West 4.6 mph - N/A   Scattered Clouds
6:15 AM 59.0 °F 48.2 °F 67% 30.16 in 10.0 mi WNW 5.8 mph - N/A   Scattered Clouds
6:35 AM 59.0 °F 48.2 °F 67% 30.16 in 10.0 mi NW 5.8 mph - N/A   Clear
6:55 AM 60.8 °F 50.0 °F 68% 30.16 in 10.0 mi NW 4.6 mph - N/A   Mostly Cloudy
7:15 AM 60.8 °F 50.0 °F 68% 30.16 in 10.0 mi WNW 5.8 mph - N/A   Overcast
7:55 AM 62.6 °F 51.8 °F 68% 30.18 in 10.0 mi WNW 6.9 mph - N/A   Mostly Cloudy
8:15 AM 62.6 °F 53.6 °F 72% 30.18 in 9.0 mi WNW 8.1 mph - N/A   Mostly Cloudy
8:35 AM 64.4 °F 53.6 °F 68% 30.18 in 10.0 mi WNW 9.2 mph - N/A   Scattered Clouds
8:55 AM 64.4 °F 53.6 °F 68% 30.19 in 10.0 mi NW 5.8 mph - N/A   Scattered Clouds
9:15 AM 68.0 °F 53.6 °F 60% 30.19 in 10.0 mi NW 11.5 mph 17.3 mph N/A   Partly Cloudy
9:35 AM 68.0 °F 53.6 °F 60% 30.19 in 10.0 mi WNW 12.7 mph 19.6 mph N/A   Clear
9:55 AM 68.0 °F 53.6 °F 60% 30.19 in 10.0 mi NNW 12.7 mph 18.4 mph N/A   Clear
10:15 AM 68.0 °F 53.6 °F 60% 30.20 in 10.0 mi NW 12.7 mph 17.3 mph N/A   Clear
10:35 AM 71.6 °F 53.6 °F 53% 30.21 in 10.0 mi NW 10.4 mph - N/A   Clear
10:55 AM 71.6 °F 53.6 °F 53% 30.21 in 10.0 mi NNW 11.5 mph - N/A   Clear
11:35 AM 69.8 °F 53.6 °F 56% 30.21 in 10.0 mi NNW 5.8 mph - N/A   Mostly Cloudy
11:55 AM 68.0 °F 53.6 °F 60% 30.20 in 10.0 mi Calm Calm - N/A   Mostly Cloudy
12:15 PM 71.6 °F 51.8 °F 50% 30.21 in 10.0 mi WNW 3.5 mph - N/A   Scattered Clouds
12:35 PM 73.4 °F 53.6 °F 50% 30.20 in 10.0 mi Calm Calm - N/A   Scattered Clouds
12:55 PM 73.4 °F 51.8 °F 47% 30.19 in 10.0 mi ENE 6.9 mph - N/A   Mostly Cloudy
1:15 PM 71.6 °F 51.8 °F 50% 30.20 in 10.0 mi West 5.8 mph - N/A   Mostly Cloudy
1:35 PM 71.6 °F 51.8 °F 50% 30.20 in 10.0 mi NW 8.1 mph - N/A   Mostly Cloudy
2:15 PM 73.4 °F 53.6 °F 50% 30.19 in 10.0 mi West 4.6 mph - N/A   Partly Cloudy
2:35 PM 73.4 °F 51.8 °F 47% 30.19 in 10.0 mi Calm Calm - N/A   Clear
3:15 PM 66.2 °F 55.4 °F 68% 30.19 in 10.0 mi NW 11.5 mph 16.1 mph N/A Rain , Thunderstorm Light Thunderstorms and Rain
3:35 PM 66.2 °F 55.4 °F 68% 30.20 in 10.0 mi SE 6.9 mph - N/A Thunderstorm Thunderstorm
3:55 PM 62.6 °F 55.4 °F 77% 30.20 in 5.0 mi ESE 8.1 mph - N/A Rain , Thunderstorm Light Thunderstorms and Rain
4:15 PM 60.8 °F 57.2 °F 88% 30.19 in 1.8 mi East 6.9 mph - 0.01 in Rain , Thunderstorm Light Rain
5:15 PM 64.4 °F 59.0 °F 83% 30.17 in 10.0 mi NW 4.6 mph - N/A   Clear
5:35 PM 66.2 °F 59.0 °F 78% 30.17 in 10.0 mi WNW 3.5 mph - 0.01 in   Clear
5:55 PM 68.0 °F 55.4 °F 64% 30.16 in 10.0 mi Calm Calm - 0.02 in   Clear
6:15 PM 69.8 °F 55.4 °F 60% 30.17 in 10.0 mi West 3.5 mph - N/A   Clear
6:35 PM 69.8 °F 55.4 °F 60% 30.17 in 10.0 mi SW 3.5 mph - N/A   Clear
6:55 PM 68.0 °F 57.2 °F 68% 30.17 in 10.0 mi SW 3.5 mph - N/A   Clear
7:35 PM 64.4 °F 57.2 °F 77% 30.17 in 10.0 mi South 3.5 mph - N/A   Clear
7:55 PM 66.2 °F 55.4 °F 68% 30.18 in 10.0 mi SSW 4.6 mph - N/A   Clear
8:15 PM 64.4 °F 55.4 °F 73% 30.18 in 10.0 mi SW 5.8 mph - N/A   Clear
8:35 PM 64.4 °F 55.4 °F 73% 30.19 in 10.0 mi SW 6.9 mph - N/A   Partly Cloudy
8:55 PM 62.6 °F 57.2 °F 82% 30.20 in 10.0 mi SW 6.9 mph - N/A   Scattered Clouds
9:15 PM 64.4 °F 55.4 °F 73% 30.20 in 10.0 mi SW 6.9 mph - N/A   Mostly Cloudy
9:35 PM 62.6 °F 55.4 °F 77% 30.20 in 10.0 mi SW 6.9 mph - N/A   Partly Cloudy
10:15 PM 62.6 °F 51.8 °F 68% 30.22 in 10.0 mi WSW 3.5 mph - N/A   Clear
10:35 PM 62.6 °F 50.0 °F 63% 30.22 in 10.0 mi SW 4.6 mph - N/A   Partly Cloudy
10:55 PM 62.6 °F 50.0 °F 63% 30.22 in 10.0 mi SW 9.2 mph - N/A   Partly Cloudy
11:15 PM 60.8 °F 50.0 °F 68% 30.22 in 10.0 mi SSW 4.6 mph - N/A   Clear
11:35 PM 60.8 °F 48.2 °F 63% 30.22 in 10.0 mi West 5.8 mph - N/A   Clear
11:55 PM 60.8 °F 46.4 °F 59% 30.22 in 10.0 mi WSW 8.1 mph - N/A   Clear